This is the latest recevied weather packets stored in our database for station/object DG7FDL-7. If no packets are shown the sender has not sent any weather packets the latest 10 day(s).
| Time | Temp. | Humidity | Pressure | Rain* | Wind** | Luminosity | Snow |
|---|---|---|---|---|---|---|---|
| 1777731676 | 25° C | 29% | 1018.8 hPa | - | - | - | - |
| 1777730766 | 24.44° C | 33% | 1018.9 hPa | - | - | - | - |
| 1777729903 | 25° C | 37% | 1019.2 hPa | - | - | - | - |
| 1777728954 | 24.44° C | 29% | 1019.2 hPa | - | - | - | - |
| 1777728091 | 24.44° C | 29% | 1019.4 hPa | - | - | - | - |
| 1777727154 | 25° C | 29% | 1019.6 hPa | - | - | - | - |
| 1777726283 | 24.44° C | 30% | 1019.8 hPa | - | - | - | - |
| 1777725354 | 23.89° C | 31% | 1020.1 hPa | - | - | - | - |
| 1777724483 | 23.89° C | 30% | 1020.2 hPa | - | - | - | - |
| 1777722686 | 23.33° C | 30% | 1020.7 hPa | - | - | - | - |
| 1777721765 | 23.33° C | 30% | 1020.9 hPa | - | - | - | - |
| 1777720884 | 23.33° C | 32% | 1021.2 hPa | - | - | - | - |
| 1777719951 | 23.33° C | 33% | 1021.3 hPa | - | - | - | - |
| 1777719074 | 22.78° C | 34% | 1021.5 hPa | - | - | - | - |
| 1777718144 | 22.78° C | 34% | 1021.6 hPa | - | - | - | - |
| 1777717282 | 22.78° C | 34% | 1021.9 hPa | - | - | - | - |
| 1777716345 | 23.89° C | 34% | 1022 hPa | - | - | - | - |
| 1777714547 | 22.22° C | 35% | 1022.4 hPa | - | - | - | - |
| 1777713667 | 22.22° C | 35% | 1022.6 hPa | - | - | - | - |
| 1777712744 | 22.22° C | 35% | 1022.7 hPa | - | - | - | - |
| 1777711875 | 22.22° C | 35% | 1022.9 hPa | - | - | - | - |
| 1777710944 | 22.22° C | 35% | 1022.8 hPa | - | - | - | - |
| 1777710072 | 21.67° C | 35% | 1023 hPa | - | - | - | - |
| 1777709144 | 22.22° C | 34% | 1023.2 hPa | - | - | - | - |
| 1777708268 | 21.67° C | 35% | 1023.2 hPa | - | - | - | - |
* Rain since midnight (hover to see other rain measurements)
** Current wind speed in m/s (hover to see current wind gust speed)